#timestamp,LO_Frequency,Hit,StdDev 
1619442015.3,286047004.1,N
1619442035.1,286047002.5,N
1619442036.0,286047002.5,N
1619442055.8,286047001.8,N
1619442075.7,286047000.3,N
1619442095.5,286047001.2,N
1619442115.3,286046999.3,N
1619442135.2,286046996.8,N
1619442155.0,286047001.0,N
1619442155.9,286047001.0,N
1619442175.8,286047002.8,N
1619442195.6,286047002.3,N
1619442215.4,286047000.3,N
1619442235.3,286047002.6,N
1619442255.1,286047002.0,N
1619442275.8,286047001.8,N
1619442295.7,286046999.7,N
1619442315.5,286047000.9,N
1619442335.4,286047001.2,N
1619442355.2,286047001.1,N
1619442375.0,286047002.5,N
1619442375.9,286047002.5,N
1619442395.8,286047003.8,N
1619442415.6,286047003.1,N
1619442435.4,286047001.6,N
1619442455.3,286046998.7,N
1619442475.1,286046999.4,N
1619442495.9,286047000.8,N
1619442515.7,286047001.0,N
1619442535.5,286047000.1,N
1619442555.4,286046999.8,N
1619442575.2,286047004.4,N
1619442595.0,286047001.8,N
1619442595.9,286047001.8,N
1619442615.8,286047000.1,N
1619442635.6,286047000.4,N
1619442655.5,286047001.7,N
1619442675.3,286047003.0,N
1619442695.1,286047006.0,Y
1619442715.9,286047001.4,P
1619442735.7,286047004.1,P
1619442755.5,286047003.9,P
1619442775.4,286047000.1,N
1619442795.2,286047000.2,N
1619442815.1,286047004.0,N
1619442816.0,286047004.0,N
1619442835.8,286047002.7,N
1619442855.6,286046999.9,N
1619442875.5,286047004.4,N
1619442895.3,286047001.7,N
1619442915.1,286047000.3,N
1619442935.9,286047001.2,N
1619442955.7,286047000.7,N
1619442975.6,286046998.7,N
1619442995.4,286046997.5,N
1619443015.2,286046997.4,N
1619443035.1,286046995.0,N
1619443036.0,286046995.0,N
1619443055.8,286046997.3,N
1619443075.7,286046997.6,N
1619443095.5,286046993.3,N
1619443115.3,286046995.9,N
1619443135.2,286046995.8,N
1619443155.0,286046995.7,N
1619443155.9,286046995.7,N
1619443175.8,286046999.5,N
1619443195.6,286047002.3,N
1619443215.4,286047000.3,N
1619443235.3,286047000.6,N
1619443255.1,286046998.4,N
1619443275.8,286046996.6,N
1619443295.7,286047002.4,N
1619443315.5,286047000.2,N
1619443335.4,286046999.0,N
1619443355.2,286047000.3,N
1619443375.0,286047000.2,N
1619443375.9,286047000.2,N
1619443395.8,286047001.4,N
1619443415.6,286047005.9,N
1619443435.4,286047003.0,N
1619443455.3,286047001.6,N
1619443475.1,286047000.6,N
1619443495.9,286047000.3,N
1619443515.7,286047000.3,N
1619443535.5,286046999.7,N
1619443555.4,286047002.6,N
1619443575.2,286046999.8,N
1619443595.0,286047004.2,N
1619443596.0,286047004.2,N
1619443615.8,286047002.2,N
1619443635.6,286047006.0,N
1619443655.5,286047007.6,N
1619443675.3,286047003.9,N
1619443695.1,286047002.9,N
1619443715.9,286047004.0,N
1619443735.7,286047001.6,N
1619443755.5,286047002.1,N
1619443775.4,286047003.1,N
1619443795.2,286047003.4,N
1619443815.1,286047005.4,N
1619443816.0,286047005.4,N
1619443835.8,286047004.0,N
1619443855.6,286047004.4,N
1619443875.5,286046999.8,N
1619443895.3,286047001.9,N
1619443915.2,286047003.3,N
1619443935.9,286047005.6,N
1619443955.7,286047006.9,Y
1619443975.6,286047005.4,P
1619443995.4,286047006.5,P
1619444015.2,286047008.1,P
1619444035.1,286047006.4,Y
1619444036.0,286047006.4,P
1619444055.8,286046998.4,P
1619444075.7,286046997.7,N
1619444095.5,286046994.9,N
1619444115.3,286047002.8,N
1619444135.2,286047000.7,N
1619444155.0,286046999.4,N
1619444155.9,286046999.4,N
1619444175.7,286046999.4,N
1619444195.6,286046993.3,N
1619444215.4,286046992.1,N
1619444235.3,286046991.9,N
1619444255.1,286046992.8,N
1619444275.8,286046992.9,N
1619444295.7,286046992.2,N
1619444315.5,286046995.9,N
1619444335.4,286046994.1,N
1619444355.2,286046994.3,N
1619444375.0,286046993.7,N
1619444375.9,286046993.7,N
1619444395.8,286046996.1,N
1619444415.6,286046993.8,N
1619444435.5,286046996.3,N
1619444455.3,286046995.0,N
1619444475.1,286046992.3,N
1619444495.9,286046992.9,N
1619444515.7,286046994.8,N
1619444535.5,286046995.2,N
1619444555.4,286046996.4,N
1619444575.2,286046993.6,N
1619444595.1,286046996.1,N
1619444596.0,286046996.1,N
1619444615.8,286046993.7,N
1619444635.6,286046986.3,Y
1619444655.5,286047001.3,P
1619444675.3,286047002.9,N
1619444695.2,286047002.9,N
1619444715.9,286047004.3,N
1619444735.7,286047003.4,N
1619444755.6,286047004.4,N
1619444775.4,286047001.2,N
1619444795.2,286046998.9,N
1619444815.1,286046994.9,N
1619444816.0,286046994.9,N
1619444835.8,286046993.9,N
1619444855.7,286046994.8,N
1619444875.5,286046994.0,N
1619444895.3,286046995.0,N
1619444915.2,286046999.5,N
1619444935.0,286046998.5,N
1619444935.9,286046998.5,N
1619444955.8,286046996.8,N
1619444975.6,286046997.3,N
1619444995.4,286046997.8,N
1619445015.3,286046997.2,N
1619445035.1,286047001.0,N
1619445055.8,286047002.6,N
1619445075.7,286047001.4,N
1619445095.5,286047003.5,N
1619445115.4,286047005.7,N
1619445135.2,286047001.9,N
1619445155.0,286046996.5,N
1619445155.9,286046996.5,N
1619445175.8,286046995.3,N
1619445195.6,286046997.9,N
1619445215.4,286046998.5,N
1619445235.3,286046998.9,N
1619445255.1,286046998.3,N
1619445275.9,286046995.2,N
1619445295.7,286046993.6,N
1619445315.5,286046994.9,N
1619445335.4,286046997.5,N
1619445355.2,286046998.9,N
1619445375.0,286046998.9,N
1619445375.9,286046998.9,N
1619445395.8,286046997.6,N
1619445415.6,286046998.5,N
1619445435.4,286046998.4,N
1619445455.3,286046995.0,N
1619445475.1,286046995.9,N
1619445495.9,286046997.2,N
1619445515.7,286046997.9,N
1619445535.5,286046995.4,N
1619445555.4,286046995.4,N
1619445575.2,286046997.6,N
1619445595.1,286046997.7,N
1619445596.0,286046997.7,N
